GW5663 Weather Reports


time (UTC)temp
C
wind
direction
speed
KPH
gust
KPH
rain 1hr
cm
rain 24hr
cm
rain mn
cm
humidity
%
barometer
mb
20260506015536 25 335 1.6 1.6 0.00 0.00 0.00 37 1086.9
20260506015033 26 324 0.0 0.0 0.00 0.00 0.00 37 1086.7
20260506014530 26 318 0.0 0.0 0.00 0.00 0.00 34 1086.5
20260506014026 27 317 1.6 1.6 0.00 0.00 0.00 33 1086.5
20260506013524 27 294 1.6 3.2 0.00 0.00 0.00 34 1086.6
20260506013021 27 298 1.6 4.8 0.00 0.00 0.00 33 1086.5
20260506012517 27 305 1.6 1.6 0.00 0.00 0.00 35 1086.1
20260506012014 27 304 1.6 1.6 0.00 0.00 0.00 35 1086.3
20260506011511 28 281 3.2 3.2 0.00 0.00 0.00 35 1086.2
20260506011008 28 276 4.8 6.4 0.00 0.00 0.00 33 1086.0
20260506010507 27 296 1.6 3.2 0.00 0.00 0.00 37 1086.3
20260506010003 28 303 0.0 0.0 0.00 0.00 0.00 37 1085.9
20260506005501 28 303 0.0 0.0 0.00 0.00 0.00 38 1086.0
20260506004956 28 303 0.0 0.0 0.00 0.00 0.00 36 1085.6
20260506004454 29 304 1.6 1.6 0.00 0.00 0.00 35 1085.8
20260506003950 29 304 1.6 1.6 0.00 0.00 0.00 34 1085.8
20260506003446 29 305 1.6 1.6 0.00 0.00 0.00 34 1085.7
20260506002943 30 296 0.0 1.6 0.00 0.00 0.00 34 1085.6
20260506002439 30 294 0.0 0.0 0.00 0.00 0.00 33 1086.0
20260506001934 30 294 1.6 1.6 0.00 0.00 0.00 31 1085.3
20260506001432 30 285 0.0 1.6 0.00 0.00 0.00 33 1085.7
20260506000929 30 285 1.6 1.6 0.00 0.00 0.00 32 1085.6
20260506000426 30 290 1.6 3.2 0.00 0.00 0.00 31 1085.7
20260505235923 30 297 1.6 1.6 0.00 0.00 0.00 32 1085.4
20260505235421 30 273 3.2 4.8 0.00 0.00 0.00 31 1085.4
20260505234918 30 282 3.2 3.2 0.00 0.00 0.00 29 1085.3
20260505234415 30 266 1.6 1.6 0.00 0.00 0.00 30 1085.4
20260505233912 30 269 6.4 6.4 0.00 0.00 0.00 29 1085.4
20260505233410 31 282 3.2 3.2 0.00 0.00 0.00 28 1085.2
20260505232907 31 272 6.4 9.7 0.00 0.00 0.00 27 1085.8
20260505232405 31 276 8.0 11.3 0.00 0.00 0.00 27 1085.8
20260505231901 31 267 4.8 4.8 0.00 0.00 0.00 29 1085.4
20260505231359 32 300 1.6 3.2 0.00 0.00 0.00 27 1085.4
20260505230857 31 338 8.0 9.7 0.00 0.00 0.00 27 1085.6
20260505230354 32 294 4.8 6.4 0.00 0.00 0.00 27 1085.4
20260505225850 32 306 1.6 1.6 0.00 0.00 0.00 28 1085.2
20260505225348 31 292 1.6 3.2 0.00 0.00 0.00 28 1085.6
20260505224843 31 299 9.7 11.3 0.00 0.00 0.00 25 1085.7
20260505224341 31 291 9.7 12.9 0.00 0.00 0.00 26 1085.7
20260505223838 32 296 8.0 11.3 0.00 0.00 0.00 26 1085.7
20260505223334 32 293 6.4 6.4 0.00 0.00 0.00 26 1085.7
20260505222830 32 280 4.8 4.8 0.00 0.00 0.00 27 1085.4
20260505222326 32 296 6.4 11.3 0.00 0.00 0.00 26 1085.7
20260505221824 32 279 8.0 9.7 0.00 0.00 0.00 25 1085.6
20260505221320 32 285 6.4 6.4 0.00 0.00 0.00 26 1085.4
20260505220818 32 288 3.2 3.2 0.00 0.00 0.00 26 1085.6
20260505220314 33 284 8.0 9.7 0.00 0.00 0.00 25 1085.4
20260505215813 33 261 6.4 6.4 0.00 0.00 0.00 25 1085.7
20260505215310 32 272 4.8 6.4 0.00 0.00 0.00 26 1085.7
20260505214808 33 271 6.4 9.7 0.00 0.00 0.00 26 1085.4
20260505214305 32 276 4.8 9.7 0.00 0.00 0.00 25 1085.6
20260505213802 33 251 12.9 14.5 0.00 0.00 0.00 25 1085.7
20260505213300 33 300 4.8 4.8 0.00 0.00 0.00 27 1085.8
20260505212755 32 350 4.8 4.8 0.00 0.00 0.00 28 1085.6
20260505212253 32 290 4.8 6.4 0.00 0.00 0.00 26 1085.8
20260505211749 33 324 6.4 11.3 0.00 0.00 0.00 28 1085.9
20260505211247 32 358 3.2 4.8 0.00 0.00 0.00 26 1085.8
20260505210743 33 311 16.1 22.5 0.00 0.00 0.00 26 1086.0
20260505210240 33 296 9.7 12.9 0.00 0.00 0.00 26 1086.0
20260505205737 32 261 3.2 4.8 0.00 0.00 0.00 28 1086.1
20260505205236 33 268 4.8 4.8 0.00 0.00 0.00 30 1086.1
20260505204732 32 306 9.7 14.5 0.00 0.00 0.00 28 1086.2
20260505204230 32 277 8.0 11.3 0.00 0.00 0.00 30 1085.9
20260505203726 32 282 14.5 16.1 0.00 0.00 0.00 28 1086.1
20260505203224 32 278 12.9 20.9 0.00 0.00 0.00 28 1086.1
20260505202719 32 248 9.7 11.3 0.00 0.00 0.00 28 1086.4
20260505202215 32 267 4.8 6.4 0.00 0.00 0.00 28 1086.3
20260505201712 31 253 9.7 11.3 0.00 0.00 0.00 28 1086.4
20260505201210 32 274 8.0 9.7 0.00 0.00 0.00 29 1086.3
20260505200708 32 279 4.8 4.8 0.00 0.00 0.00 30 1086.5
20260505200204 32 257 6.4 6.4 0.00 0.00 0.00 29 1086.5
20260505195700 32 274 11.3 14.5 0.00 0.00 0.00 29 1086.3
20260505195158 31 278 6.4 9.7 0.00 0.00 0.00 30 1086.4
20260505194655 32 301 6.4 6.4 0.00 0.00 0.00 31 1086.7
20260505194151 32 290 6.4 11.3 0.00 0.00 0.00 30 1086.7
20260505193648 32 253 4.8 6.4 0.00 0.00 0.00 30 1086.5
20260505193144 32 292 6.4 9.7 0.00 0.00 0.00 32 1086.6
20260505192643 31 273 6.4 9.7 0.00 0.00 0.00 32 1086.7
20260505192141 31 294 6.4 6.4 0.00 0.00 0.00 33 1086.6
20260505191639 31 248 9.7 12.9 0.00 0.00 0.00 33 1086.8
20260505191137 31 324 4.8 6.4 0.00 0.00 0.00 35 1086.8
20260505190632 31 276 16.1 20.9 0.00 0.00 0.00 35 1086.7
20260505190127 31 285 8.0 11.3 0.00 0.00 0.00 37 1087.0
20260505185624 31 310 6.4 9.7 0.00 0.00 0.00 39 1087.0
20260505185120 31 270 11.3 14.5 0.00 0.00 0.00 37 1086.8
20260505184617 31 296 9.7 12.9 0.00 0.00 0.00 39 1087.0
20260505184114 31 258 6.4 6.4 0.00 0.00 0.00 40 1087.4
20260505183611 30 319 8.0 9.7 0.00 0.00 0.00 39 1087.3
20260505183109 30 335 6.4 11.3 0.00 0.00 0.00 42 1087.4
20260505182604 30 313 9.7 11.3 0.00 0.00 0.00 40 1087.4
20260505182101 30 284 3.2 4.8 0.00 0.00 0.00 42 1087.5
20260505181558 30 243 9.7 9.7 0.00 0.00 0.00 41 1087.6
20260505181055 30 276 6.4 6.4 0.00 0.00 0.00 42 1087.5
20260505180550 30 262 9.7 11.3 0.00 0.00 0.00 43 1087.7
20260505180049 29 293 8.0 9.7 0.00 0.00 0.00 42 1087.6
20260505175549 30 273 8.0 9.7 0.00 0.00 0.00 45 1087.7
20260505175046 29 279 6.4 11.3 0.00 0.00 0.00 45 1087.5
20260505174543 29 236 8.0 9.7 0.00 0.00 0.00 46 1087.8
20260505174039 29 305 9.7 12.9 0.00 0.00 0.00 44 1087.6
20260505173536 28 271 11.3 12.9 0.00 0.00 0.00 47 1087.7
20260505173033 28 268 9.7 12.9 0.00 0.00 0.00 49 1087.9
20260505172531 28 206 3.2 3.2 0.00 0.00 0.00 52 1087.5
20260505172027 28 256 3.2 4.8 0.00 0.00 0.00 52 1087.8
20260505171522 27 272 4.8 4.8 0.00 0.00 0.00 56 1087.8
20260505171019 27 239 11.3 12.9 0.00 0.00 0.00 56 1087.6
20260505170516 27 252 9.7 11.3 0.00 0.00 0.00 59 1087.9
20260505170013 27 250 3.2 3.2 0.00 0.00 0.00 63 1087.9
20260505165508 27 205 3.2 4.8 0.00 0.00 0.00 65 1088.0
20260505165004 26 258 8.0 9.7 0.00 0.00 0.00 66 1087.8
20260505164500 26 178 8.0 11.3 0.00 0.00 0.00 67 1088.1
20260505163958 26 218 1.6 3.2 0.00 0.00 0.00 70 1088.0
20260505163456 25 232 1.6 1.6 0.00 0.00 0.00 71 1088.0
20260505162955 25 248 4.8 4.8 0.00 0.00 0.00 72 1088.0
20260505162451 25 258 6.4 6.4 0.00 0.00 0.00 73 1087.9
20260505161947 25 269 9.7 11.3 0.00 0.00 0.00 74 1087.9
20260505161444 25 201 4.8 9.7 0.00 0.00 0.00 75 1088.0
20260505160942 25 213 4.8 4.8 0.00 0.00 0.00 76 1088.0
20260505160440 25 214 4.8 6.4 0.00 0.00 0.00 77 1088.2
20260505152916 23 213 4.8 9.7 0.00 0.00 0.00 81 1087.7
20260505152414 23 211 1.6 1.6 0.00 0.00 0.00 82 1087.9
20260505151913 23 229 4.8 6.4 0.00 0.00 0.00 82 1087.8
20260505151410 22 201 6.4 9.7 0.00 0.00 0.00 83 1087.7
20260505150908 22 228 1.6 1.6 0.00 0.00 0.00 84 1087.5
20260505150405 22 181 6.4 9.7 0.00 0.00 0.00 84 1087.6
20260505140334 20 177 9.7 14.5 0.00 0.00 0.00 89 1087.6
20260505130257 19 186 12.9 17.7 0.00 0.00 0.00 93 1087.1
20260505124748 19 197 6.4 9.7 0.00 0.00 0.00 93 1087.3
20260505124245 19 193 9.7 14.5 0.00 0.00 0.00 93 1087.4
20260505123740 19 200 8.0 9.7 0.00 0.00 0.00 94 1086.9
20260505123237 18 161 4.8 6.4 0.00 0.00 0.00 94 1087.4
20260505122734 18 195 6.4 9.7 0.00 0.00 0.00 94 1087.0
20260505122231 18 185 4.8 6.4 0.00 0.00 0.00 94 1086.8
20260505121728 18 177 4.8 6.4 0.00 0.00 0.00 94 1086.8
20260505121224 18 215 8.0 11.3 0.00 0.00 0.00 93 1086.5
20260505120721 18 165 6.4 11.3 0.00 0.00 0.00 93 1086.6
20260505120217 18 190 6.4 9.7 0.00 0.00 0.00 93 1086.6
20260505115715 18 177 6.4 6.4 0.00 0.00 0.00 93 1086.4
20260505115213 18 176 4.8 6.4 0.00 0.00 0.00 93 1086.5
20260505114711 18 183 8.0 11.3 0.00 0.00 0.00 92 1086.4
20260505114206 18 176 6.4 9.7 0.00 0.00 0.00 93 1086.6
20260505113703 18 214 4.8 6.4 0.00 0.00 0.00 92 1086.3
20260505113200 18 166 3.2 4.8 0.00 0.00 0.00 92 1086.1
20260505112656 18 182 3.2 3.2 0.00 0.00 0.00 92 1086.4
20260505112154 18 177 6.4 9.7 0.00 0.00 0.00 92 1086.1
20260505111653 18 191 6.4 6.4 0.00 0.00 0.00 92 1086.2
20260505111149 18 187 6.4 9.7 0.00 0.00 0.00 92 1085.9
20260505110646 18 145 6.4 9.7 0.00 0.00 0.00 91 1086.0
20260505110143 18 158 4.8 4.8 0.00 0.00 0.00 91 1086.1
20260505102119 18 160 9.7 12.9 0.00 0.00 0.00 90 1085.7
20260505101617 18 160 6.4 9.7 0.00 0.00 0.00 90 1085.8
20260505101113 18 175 8.0 11.3 0.00 0.00 0.00 89 1085.8
20260505100610 18 203 4.8 4.8 0.00 0.00 0.00 89 1085.7
20260505100107 18 143 4.8 4.8 0.00 0.00 0.00 89 1085.7
20260505095603 18 137 9.7 12.9 0.00 0.00 0.00 89 1086.0
20260505095059 18 155 8.0 11.3 0.00 0.00 0.00 89 1085.8
20260505094556 18 177 6.4 9.7 0.00 0.00 0.00 88 1085.9
20260505094052 18 189 8.0 11.3 0.00 0.00 0.00 88 1085.9
20260505093549 19 164 4.8 4.8 0.00 0.00 0.00 88 1085.9
20260505093046 19 167 6.4 6.4 0.00 0.00 0.00 87 1085.8
20260505092544 19 156 9.7 14.5 0.00 0.00 0.00 87 1085.9
20260505092042 19 183 8.0 11.3 0.00 0.00 0.00 87 1085.7
20260505091538 19 148 9.7 17.7 0.00 0.00 0.00 86 1085.7
20260505091037 19 206 9.7 16.1 0.00 0.00 0.00 87 1085.7
20260505090534 19 182 9.7 11.3 0.00 0.00 0.00 86 1085.9
20260505090032 19 181 11.3 16.1 0.00 0.00 0.00 86 1086.2
20260505085530 19 159 6.4 11.3 0.00 0.00 0.00 86 1086.1
20260505085028 19 198 9.7 12.9 0.00 0.00 0.00 86 1086.3
20260505084525 19 190 11.3 14.5 0.00 0.00 0.00 86 1086.3
20260505084023 19 179 6.4 9.7 0.00 0.00 0.00 86 1086.0
20260505083520 19 176 6.4 9.7 0.00 0.00 0.00 86 1086.3
20260505083017 20 185 6.4 9.7 0.00 0.00 0.00 85 1086.1
20260505082512 20 182 8.0 9.7 0.00 0.00 0.00 85 1086.1
20260505082009 20 181 3.2 4.8 0.00 0.00 0.00 85 1086.1
20260505081506 20 157 9.7 11.3 0.00 0.00 0.00 85 1086.4
20260505081003 20 197 8.0 11.3 0.00 0.00 0.00 85 1086.3
20260505080459 20 186 12.9 17.7 0.00 0.00 0.00 85 1086.2
20260505075955 20 168 8.0 9.7 0.00 0.00 0.00 84 1086.3
20260505075452 20 165 6.4 9.7 0.00 0.00 0.00 84 1086.4
20260505074949 20 192 9.7 11.3 0.00 0.00 0.00 84 1086.4
20260505074446 20 203 12.9 16.1 0.00 0.00 0.00 84 1086.5
20260505073943 20 213 9.7 12.9 0.00 0.00 0.00 84 1086.5
20260505073441 20 176 8.0 9.7 0.00 0.00 0.00 83 1086.6
20260505072938 20 213 6.4 14.5 0.00 0.00 0.00 84 1086.5
20260505072434 20 172 4.8 4.8 0.00 0.00 0.00 83 1086.6
20260505071930 20 178 6.4 11.3 0.00 0.00 0.00 83 1086.6
20260505071426 20 136 8.0 9.7 0.00 0.00 0.00 83 1086.9
20260505070925 20 206 6.4 9.7 0.00 0.00 0.00 82 1086.9
20260505070421 20 171 4.8 6.4 0.00 0.00 0.00 82 1086.9
20260505065916 20 135 9.7 14.5 0.00 0.00 0.00 82 1086.7
20260505065413 20 200 11.3 12.9 0.00 0.00 0.00 82 1086.9
20260505064910 20 189 9.7 16.1 0.00 0.00 0.00 82 1086.9
20260505064407 20 142 8.0 12.9 0.00 0.00 0.00 82 1086.9
20260505063906 20 184 9.7 11.3 0.00 0.00 0.00 81 1087.0
20260505063402 20 173 11.3 12.9 0.00 0.00 0.00 81 1087.1
20260505062858 20 164 9.7 12.9 0.00 0.00 0.00 81 1087.1
20260505062355 20 164 9.7 12.9 0.00 0.00 0.00 81 1087.4
20260505061852 20 150 9.7 12.9 0.00 0.00 0.00 81 1087.3
20260505061351 21 174 9.7 12.9 0.00 0.00 0.00 80 1087.0
20260505060848 21 205 8.0 9.7 0.00 0.00 0.00 80 1087.5
20260505060344 21 187 6.4 9.7 0.00 0.00 0.00 80 1087.0
20260505055840 21 168 9.7 14.5 0.00 0.00 0.00 80 1087.4
20260505055336 21 207 12.9 14.5 0.00 0.00 0.00 80 1087.5
20260505054834 21 192 11.3 16.1 0.00 0.00 0.00 79 1087.4
20260505054331 21 213 11.3 17.7 0.00 0.00 0.00 79 1087.6
20260505053829 21 182 6.4 9.7 0.00 0.00 0.00 79 1087.6
20260505053325 21 172 9.7 14.5 0.00 0.00 0.00 78 1087.5
20260505052822 21 215 8.0 11.3 0.00 0.00 0.00 78 1087.8
20260505052319 21 166 9.7 11.3 0.00 0.00 0.00 78 1087.5
20260505051817 21 204 8.0 11.3 0.00 0.00 0.00 77 1087.6
20260505051314 21 195 4.8 4.8 0.00 0.00 0.00 77 1087.7
20260505050812 21 210 16.1 22.5 0.00 0.00 0.00 76 1087.5
20260505050310 21 179 3.2 4.8 0.00 0.00 0.00 77 1087.5
20260505041740 22 171 11.3 16.1 0.00 0.00 0.00 74 1087.8
20260505041237 22 190 9.7 14.5 0.00 0.00 0.00 74 1087.5
20260505040735 22 187 8.0 14.5 0.00 0.00 0.00 74 1087.5
20260505040232 22 170 9.7 12.9 0.00 0.00 0.00 74 1087.6
20260505035729 22 165 4.8 6.4 0.00 0.00 0.00 74 1087.4
20260505035224 22 179 8.0 14.5 0.00 0.00 0.00 73 1087.6
20260505034721 22 218 12.9 16.1 0.00 0.00 0.00 73 1087.4
20260505034218 22 199 12.9 17.7 0.00 0.00 0.00 73 1087.4
20260505033715 22 182 11.3 14.5 0.00 0.00 0.00 72 1087.4
20260505033213 22 161 9.7 12.9 0.00 0.00 0.00 72 1087.0
20260505032711 22 152 4.8 4.8 0.00 0.00 0.00 71 1086.9
20260505032206 23 196 17.7 20.9 0.00 0.00 0.00 70 1087.0
20260505031704 23 215 6.4 9.7 0.00 0.00 0.00 70 1086.9
20260505031200 23 195 9.7 12.9 0.00 0.00 0.00 69 1087.1
20260505030657 23 193 11.3 14.5 0.00 0.00 0.00 69 1086.9
20260505030153 23 224 12.9 14.5 0.00 0.00 0.00 68 1086.8
20260505025649 23 138 6.4 6.4 0.00 0.00 0.00 68 1086.7
20260505025148 23 163 8.0 11.3 0.00 0.00 0.00 67 1086.7
20260505024645 23 160 9.7 14.5 0.00 0.00 0.00 67 1086.6
20260505024142 23 185 11.3 16.1 0.00 0.00 0.00 66 1086.8
20260505023639 23 188 12.9 16.1 0.00 0.00 0.00 65 1086.5
20260505023137 23 173 8.0 11.3 0.00 0.00 0.00 65 1086.6
20260505022634 24 198 11.3 14.5 0.00 0.00 0.00 64 1086.5
20260505022131 24 184 6.4 6.4 0.00 0.00 0.00 64 1086.6
20260505021627 24 214 12.9 14.5 0.00 0.00 0.00 63 1086.5
20260505021124 25 177 6.4 6.4 0.00 0.00 0.00 62 1086.4
20260505020620 25 158 8.0 9.7 0.00 0.00 0.00 62 1086.7
20260505020116 25 192 9.7 11.3 0.00 0.00 0.00 61 1086.6